* Astronomy

Members Login
Username 
 
Password 
    Remember Me  
Post Info TOPIC: Asteroid 2012 UC69


L

Posts: 131433
Date:
Asteroid 2012 UC69
Permalink  
 


Orbital elements:
2012 UC69                                                Earth MOID = 0.0269 AU
Epoch 2012 Sept. 30.0 TT = JDT 2456200.5                MPC
M   2.83837              (2000.0)            P               Q
n   0.31315667     Peri.  316.81778     +0.98453140     +0.16595169
a   2.1476406      Node    33.75039     -0.12014066     +0.87288765
e   0.5515233      Incl.    5.80532     -0.12753099     +0.45883241
P   3.15           H   22.8           G   0.15           U   6

MPEC 2012 - U80



__________________
Page 1 of 1  sorted by
 
Quick Reply

Please log in to post quick replies.



Create your own FREE Forum
Report Abuse
Powered by ActiveBoard